Location: Waco, TX
(31.5480°N, 97.1670°W)
Time: 22:10:19
(UTC-06:00)

ISS - Pass Details

Date: 14 November 2017
Orbit: 402 x 407 km, 51.6° (Epoch: 21 November)

Event Time Altitude Azimuth Distance (km) Brightness Sun altitude
Rises 08:04:51 0° 303° (WNW) 2,310 -0.7 12.3°
Reaches altitude 10° 08:07:05 10° 292° (WNW) 1,449 -1.6 12.8°
Maximum altitude 08:09:56 28° 231° (SW) 780 -2.5 13.3°
Drops below altitude 10° 08:12:46 10° 169° (S) 1,442 -0.3 13.8°
Sets 08:15:00 0° 157° (SSE) 2,298 1.0 14.2°
